Terminal Aerodrome Forecast
Issued by NWS

Home | Current Version | Previous Version | Text Only | Print | Product List | Glossary Off
Versions: 1 2 3 4 5 6 7 8 9 10 11 12 13 14

000
FTUS45 KGGW 021700
TAFSDY
TAF
KSDY 021720Z 0218/0318 27016G25KT P6SM SCT120
     FM030000 30015KT P6SM BKN120
     FM030300 34013KT P6SM BKN110
     FM030600 35009KT P6SM SCT120
      AMD LTD TO CLD VIS AND WIND=

USA.gov is the U.S. government's official web portal to all federal, state and local government web resources and services.